Погода в Ваингуиниме

Индия     15°27′30″N   73°48′23″E
темп.,
°C
ветер,
м/с
пор.,
м/с
влажн.,
%
обл.,
%
осадки,
мм/ч
давл.,
гПа
погр.,
м
19 апреля, пн
пн1923:30+28ю227738 0.0 1013546
02:30+28ююз33784 0.0 1010487
05:30+28з12794 0.0 1010441
08:30+29зсз227218 0.0 1012695
11:30+29зюз44734 0.0 1012676
14:30+29зюз66725 0.0 1009612
17:30+29з45705 0.0 1008775
20:30+29зсз34725 0.0 1010665
20 апреля, вт
вт2023:30+28зсз44720 0.0 1011672
02:30+28ссз34735 0.0 1009747
05:30+27ссз23745 0.0 1009651
08:30+28с23685 0.0 1011693
11:30+29зсз55685 0.0 1011647
14:30+29з66675 0.0 1008556
17:30+29зсз7867100 0.0 1007746
20:30+29сз67715 0.0 1010758
21 апреля, ср
ср2123:30+28ссз57736 0.0 1010742
02:30+27с44762 0.0 1009603
05:30+27ссз457968 0.0 1009470
08:30+27ссв33765 0.0 1012437
11:30+28з6675100 0.0 1011590
14:30+30зсз886679 0.0 1009669
17:30+29сз786885 0.0 1008767
20:30+29сз7973100 0.0 1010827
22 апреля, чт
чт2223:30+28ссз6875100 0.0 1010769
02:30+28ссз4674100 0.0 1009591
05:30+26ссв468021 0.0 1010438
08:30+28ссз577114 0.0 1012663
11:30+29зсз876864 0.0 1011600
14:30+30зсз1011695 0.0 1007619
17:30+29зсз787089 0.0 1008878
20:30+29сз56748 0.0 1010730
23 апреля, пт
пт2323:30+29сз4577100 0.0 1011708
02:30+28ссз2377100 0.0 1008608
05:30+27ссз348192 0.0 1009540
08:30+27в2279100 0.1 1011252
11:30+29з4473100 0.1 1011571
14:30+29з7669100 0.0 1008604
17:30+29зсз6667100 0.0 1008842
20:30+29сз677174 0.0 1010678